{"data":{"norad_id":66536,"epoch":"2026-09-20T16:23:28.132800Z","epoch_age_seconds":73367,"freshness":"FRESH","line1":"1 66536U 25265W   26263.68296450  .00006850  00000+0  25819-3 0  9991","line2":"2 66536  43.0007 256.8395 0001304 285.3003  74.7704 15.27585059 46937","mean_motion":15.27585059,"eccentricity":0.0001304,"inclination_deg":43.0007,"raan_deg":256.8395,"arg_perigee_deg":285.3003,"mean_anomaly_deg":74.7704,"bstar":0.00025819,"rev_number":4693,"period_min":94.266436524501,"perigee_km":482.13925092392,"apogee_km":483.92864430706,"semimajor_km":6861.1709476155,"source":"CELESTRAK","updated_at":"2026-09-21T09:00:35.967507Z"}}